BAW34MB LERS-EGLL

Flight info

Callsign BAW34MB
Flight time N/A
Altitude 34000
Route ARBEK N863 GIROM DCT VELIN DCT TUPAR UN861 DIKRO UM184 PILIP UN6 TELTU/N0443F330 UM185 OCK
Aircraft A320/M-SDE3FGHIRWY/LB1

Departure

Time 2026-05-05 12:37
Airport Reus Airport (LERS)

Arrival

Time N/A
Airport London Heathrow Airport (EGLL)
Time Latitude Longitude Altitude Speed Heading
2026-05-05 12:27 41.14677 1.15623 243 ft 0 kts 339°
2026-05-05 12:28 41.14665 1.15629 243 ft 4 kts 339°
2026-05-05 12:28 41.14642 1.15641 243 ft 2 kts 339°
2026-05-05 12:29 41.14619 1.15649 243 ft 4 kts 13°
2026-05-05 12:29 41.14600 1.15631 243 ft 4 kts 64°
2026-05-05 12:29 41.14594 1.15616 243 ft 0 kts 69°
2026-05-05 12:32 41.14595 1.15617 243 ft 1 kts 69°
2026-05-05 12:32 41.14600 1.15635 243 ft 3 kts 69°
2026-05-05 12:32 41.14610 1.15668 243 ft 5 kts 69°
2026-05-05 12:32 41.14625 1.15720 243 ft 7 kts 69°
2026-05-05 12:33 41.14645 1.15788 243 ft 9 kts 69°
2026-05-05 12:33 41.14690 1.15942 243 ft 26 kts 68°
2026-05-05 12:33 41.14756 1.16168 243 ft 27 kts 69°
2026-05-05 12:33 41.14824 1.16409 243 ft 29 kts 68°
2026-05-05 12:34 41.14901 1.16662 243 ft 30 kts 69°
2026-05-05 12:34 41.14977 1.16921 243 ft 31 kts 69°
2026-05-05 12:34 41.15054 1.17185 243 ft 31 kts 69°
2026-05-05 12:34 41.15131 1.17449 243 ft 30 kts 69°
2026-05-05 12:35 41.15209 1.17712 243 ft 31 kts 69°
2026-05-05 12:35 41.15282 1.17967 243 ft 18 kts 68°
2026-05-05 12:35 41.15320 1.18096 243 ft 15 kts 69°
2026-05-05 12:35 41.15332 1.18233 243 ft 16 kts 133°
2026-05-05 12:36 41.15224 1.18291 243 ft 13 kts 172°
2026-05-05 12:36 41.15184 1.18238 243 ft 4 kts 248°
2026-05-05 12:36 41.15125 1.18038 243 ft 56 kts 248°
2026-05-05 12:36 41.14905 1.17280 244 ft 117 kts 249°
2026-05-05 12:37 41.14552 1.16078 277 ft 158 kts 247°
2026-05-05 12:37 41.14173 1.14743 950 ft 150 kts 248°
2026-05-05 12:37 41.13811 1.13469 1573 ft 147 kts 246°
2026-05-05 12:37 41.13303 1.12208 1915 ft 165 kts 240°
2026-05-05 12:38 41.12675 1.10809 2171 ft 187 kts 239°
2026-05-05 12:38 41.11967 1.09230 2457 ft 210 kts 240°
2026-05-05 12:38 41.11211 1.07519 3074 ft 218 kts 241°
2026-05-05 12:38 41.10682 1.05618 3679 ft 229 kts 265°
2026-05-05 12:39 41.10959 1.03471 4077 ft 251 kts 298°
2026-05-05 12:39 41.12198 1.01805 4804 ft 264 kts 332°
2026-05-05 12:39 41.14008 1.01343 5634 ft 273 kts
2026-05-05 12:39 41.15905 1.01748 6486 ft 279 kts
2026-05-05 12:40 41.17823 1.02294 7302 ft 284 kts 11°
2026-05-05 12:40 41.19769 1.02892 8118 ft 289 kts 11°
2026-05-05 12:40 41.21072 1.03296 8617 ft 293 kts 11°
2026-05-05 12:40 41.23757 1.04115 9702 ft 299 kts 11°
2026-05-05 12:41 41.25112 1.04521 10163 ft 303 kts 10°
2026-05-05 12:41 41.27241 1.05146 10485 ft 325 kts 10°
2026-05-05 12:41 41.29524 1.05807 10665 ft 347 kts 10°
2026-05-05 12:41 41.31944 1.06502 11007 ft 362 kts 10°
2026-05-05 12:42 41.35245 1.07449 11796 ft 370 kts 10°
2026-05-05 12:42 41.37772 1.08174 12453 ft 374 kts 10°
2026-05-05 12:42 41.39501 1.08670 12875 ft 377 kts
2026-05-05 12:42 41.42079 1.09410 13540 ft 382 kts
2026-05-05 12:43 41.44692 1.10162 14145 ft 386 kts
2026-05-05 12:43 41.47336 1.10928 14723 ft 391 kts
2026-05-05 12:43 41.50008 1.11705 15285 ft 395 kts
2026-05-05 12:43 41.52707 1.12475 15833 ft 398 kts
2026-05-05 12:44 41.55464 1.12803 16375 ft 398 kts 355°
2026-05-05 12:44 41.58222 1.12573 16947 ft 399 kts 350°
2026-05-05 12:44 41.61004 1.12272 17535 ft 403 kts 350°
2026-05-05 12:44 41.63811 1.11971 18129 ft 407 kts 350°
2026-05-05 12:45 41.66648 1.11671 18668 ft 411 kts 350°
2026-05-05 12:45 41.69474 1.11373 19191 ft 415 kts 349°
2026-05-05 12:45 41.72367 1.11065 19736 ft 419 kts 349°
2026-05-05 12:45 41.75289 1.10751 20266 ft 423 kts 349°
2026-05-05 12:46 41.78243 1.10434 20767 ft 428 kts 349°
2026-05-05 12:46 41.81226 1.10115 21256 ft 432 kts 349°
2026-05-05 12:46 41.84238 1.09792 21731 ft 436 kts 348°
2026-05-05 12:46 41.87277 1.09468 22193 ft 440 kts 348°
2026-05-05 12:47 41.90341 1.09145 22649 ft 443 kts 348°
2026-05-05 12:47 41.93435 1.08817 23110 ft 447 kts 348°
2026-05-05 12:47 41.96547 1.08484 23546 ft 451 kts 348°
2026-05-05 12:47 41.99690 1.08148 23921 ft 454 kts 348°
2026-05-05 12:48 42.02854 1.07809 24302 ft 457 kts 348°
2026-05-05 12:48 42.06037 1.07470 24658 ft 460 kts 348°
2026-05-05 12:48 42.09235 1.07130 25030 ft 462 kts 348°
2026-05-05 12:48 42.12410 1.06793 25380 ft 465 kts 348°
2026-05-05 12:49 42.15648 1.06444 25730 ft 467 kts 348°
2026-05-05 12:49 42.18898 1.06094 26110 ft 470 kts 348°
2026-05-05 12:49 42.22168 1.05743 26457 ft 473 kts 348°
2026-05-05 12:49 42.25458 1.05391 26804 ft 475 kts 348°
2026-05-05 12:50 42.28770 1.05036 27164 ft 478 kts 348°
2026-05-05 12:50 42.32092 1.04678 27514 ft 480 kts 348°
2026-05-05 12:50 42.35437 1.04315 27845 ft 483 kts 348°
2026-05-05 12:50 42.38796 1.03951 28166 ft 485 kts 348°
2026-05-05 12:51 42.42172 1.03584 28569 ft 486 kts 348°
2026-05-05 12:51 42.45551 1.03217 29004 ft 486 kts 348°
2026-05-05 12:51 42.48924 1.02851 29453 ft 486 kts 347°
2026-05-05 12:51 42.52301 1.02481 29924 ft 486 kts 347°
2026-05-05 12:52 42.55671 1.02115 30334 ft 485 kts 348°
2026-05-05 12:52 42.58995 1.01758 30685 ft 486 kts 348°
2026-05-05 12:52 42.62358 1.01395 31085 ft 484 kts 348°
2026-05-05 12:52 42.65705 1.01030 31566 ft 481 kts 348°
2026-05-05 12:53 42.69031 1.00664 32018 ft 479 kts 348°
2026-05-05 12:53 42.72349 1.00296 32466 ft 478 kts 348°
2026-05-05 12:53 42.75657 0.99928 32915 ft 475 kts 347°
2026-05-05 12:53 42.78886 0.99215 33338 ft 465 kts 339°
2026-05-05 12:54 42.85089 0.96938 33906 ft 462 kts 337°
2026-05-05 12:54 42.88197 0.95785 33982 ft 467 kts 338°
2026-05-05 12:55 42.94529 0.93443 33971 ft 473 kts 338°
2026-05-05 12:55 43.00892 0.91101 33977 ft 474 kts 338°
2026-05-05 12:56 43.07254 0.88747 33984 ft 474 kts 338°
2026-05-05 12:56 43.13620 0.86379 33987 ft 473 kts 338°
2026-05-05 12:57 43.19973 0.84008 33993 ft 473 kts 339°
2026-05-05 12:57 43.26332 0.81644 33998 ft 473 kts 339°
2026-05-05 12:58 43.32649 0.79281 34003 ft 473 kts 339°
2026-05-05 12:58 43.39028 0.76882 34003 ft 472 kts 339°
2026-05-05 12:59 43.45366 0.74501 34006 ft 472 kts 340°
2026-05-05 12:59 43.51697 0.72119 34009 ft 471 kts 340°
2026-05-05 13:00 43.61182 0.68541 34004 ft 471 kts 340°
2026-05-05 13:01 43.73787 0.63767 33997 ft 471 kts 340°
2026-05-05 13:01 43.80111 0.61363 33998 ft 471 kts 340°
2026-05-05 13:02 43.86426 0.58950 33991 ft 471 kts 340°
2026-05-05 13:02 43.92745 0.56542 33983 ft 471 kts 340°
2026-05-05 13:03 43.99069 0.54129 33975 ft 471 kts 340°
2026-05-05 13:03 44.05394 0.51698 33974 ft 472 kts 340°
2026-05-05 13:04 44.11723 0.49262 33965 ft 472 kts 340°
2026-05-05 13:04 44.18052 0.46831 33967 ft 472 kts 340°
2026-05-05 13:05 44.24386 0.44394 33979 ft 472 kts 340°